TimeMST,TemperatureF,Dew PointF,Humidity,Sea Level PressureIn,VisibilityMPH,Wind Direction,Wind SpeedMPH,Gust SpeedMPH,PrecipitationIn,Events,Conditions,WindDirDegrees,DateUTC
2:51 AM,27.0,19.0,72,30.15,10.0,East,6.9,-,N/A,,Clear,90,2012-12-21 09:51:00
3:51 AM,27.0,18.0,69,30.13,10.0,ENE,4.6,-,N/A,,Clear,70,2012-12-21 10:51:00
4:51 AM,25.0,18.0,75,30.12,10.0,East,3.5,-,N/A,,Clear,100,2012-12-21 11:51:00
5:51 AM,24.1,17.1,75,30.14,10.0,Calm,Calm,-,N/A,,Clear,0,2012-12-21 12:51:00
6:51 AM,24.1,17.1,75,30.15,10.0,East,3.5,-,0.06,,Clear,80,2012-12-21 13:51:00
7:51 AM,25.0,17.1,72,30.16,10.0,ENE,3.5,-,N/A,,Clear,60,2012-12-21 14:51:00
8:51 AM,34.0,19.9,56,30.16,10.0,Calm,Calm,-,N/A,,Unknown,0,2012-12-21 15:51:00
9:51 AM,39.0,17.1,41,30.14,10.0,Calm,Calm,-,N/A,,Clear,0,2012-12-21 16:51:00
10:51 AM,43.0,18.0,37,30.13,10.0,Calm,Calm,-,N/A,,Clear,0,2012-12-21 17:51:00
11:51 AM,46.0,15.1,29,30.10,10.0,North,3.5,-,N/A,,Clear,360,2012-12-21 18:51:00
12:51 PM,48.0,18.0,30,30.08,10.0,North,3.5,-,0.06,,Clear,360,2012-12-21 19:51:00
12:57 PM,48.2,17.6,30,30.13,5.0,Calm,Calm,-,N/A,,Haze,0,2012-12-21 19:57:00
1:51 PM,51.1,19.0,28,30.06,10.0,Calm,Calm,-,N/A,,Clear,0,2012-12-21 20:51:00
2:51 PM,53.6,19.4,26,30.11,10.0,NNE,3.5,-,N/A,,Clear,30,2012-12-21 21:51:00
3:51 PM,50.0,25.0,38,30.05,10.0,NNE,9.2,-,N/A,,Clear,20,2012-12-21 22:51:00
4:51 PM,45.0,26.1,48,30.06,10.0,NE,3.5,-,N/A,,Clear,40,2012-12-21 23:51:00
5:51 PM,36.0,28.0,73,30.09,10.0,Calm,Calm,-,N/A,,Clear,0,2012-12-22 00:51:00
6:51 PM,35.6,28.4,75,30.12,10.0,Calm,Calm,-,N/A,,Clear,0,2012-12-22 01:51:00
7:51 PM,33.1,27.0,78,30.12,10.0,Calm,Calm,-,N/A,,Clear,0,2012-12-22 02:51:00
8:51 PM,33.1,25.0,72,30.09,10.0,Calm,Calm,-,N/A,,Clear,0,2012-12-22 03:51:00
9:51 PM,33.1,25.0,72,30.09,10.0,Calm,Calm,-,N/A,,Clear,0,2012-12-22 04:51:00
10:51 PM,33.1,26.1,75,30.08,10.0,Calm,Calm,-,N/A,,Clear,0,2012-12-22 05:51:00
11:51 PM,30.0,26.1,85,30.06,10.0,SW,3.5,-,N/A,,Clear,220,2012-12-22 06:51:00